Temp
79 71 70 74 71 70 69 67 65 72 77 70 69 70 74 79 79 76 75 75 75 76 79 81 81 81 80 79 77 76 77 78 80 81 82 81 73 73 78 92 92 90 88 89
72 68 74 71 71 68 68 65 66 71 73 71 69 69 75 77 75 74 72 73 74 75 76 77 78 78 78 77 76 75 75 77 78 80 81 83 78 73 75 87 88 87 87 88
69 73 72 68 68 65 67 65 65 63 68 72 69 67 71 73 74 75 75 74 75 74 73 74 75 75 76 75 75 75 74 74 76 76 79 79 80 74 74 77 85 85 87 88
71 77 67 67 66 67 61 69 65 63 62 60 70 57 67 72 70 74 74 74 73 73 74 75 75 74 74 75 76 75 74 73 75 75 74 75 75 72 68 75 79 84 88 84
67 68 67 65 67 66 62 68 64 64 62 62 64 61 68 72 69 73 72 72 72 73 74 74 75 75 76 76 75 74 73 72 72 72 68 65 68 78 69 74 76 78 82 84
70 74 68 69 68 68 69 64 67 68 64 52 64 63 64 70 70 70 71 71 72 73 74 74 75 75 75 77 76 72 70 70 72 70 67 60 62 75 70 72 72 76 77 84
67 68 70 68 64 70 65 62 49 52 53 51 65 59 64 71 70 68 67 69 70 71 73 71 71 71 72 73 73 72 70 69 71 68 65 58 60 74 72 71 74 75 76 82
60 56 65 69 65 62 62 59 50 37 47 55 63 54 67 71 70 68 68 69 70 72 72 70 70 68 68 70 71 70 67 69 70 68 65 58 58 62 72 74 75 80 81 81
59 59 68 65 67 65 61 58 62 49 53 50 58 65 72 70 66 68 70 70 69 68 69 69 70 69 65 66 68 68 68 69 70 68 67 58 58 58 63 74 74 74 79 82
61 51 66 66 66 66 62 64 49 49 39 42 56 58 60 63 65 67 66 66 67 67 68 68 67 66 67 66 67 69 69 69 70 69 70 62 59 59 61 70 73 74 72 77
63 54 58 62 58 60 56 55 55 52 51 43 43 55 65 65 64 63 66 67 67 66 68 67 66 66 65 64 65 67 67 68 69 70 70 68 62 61 60 63 74 75 72 71
63 55 50 59 67 66 63 59 56 42 44 48 46 47 69 67 67 67 65 67 67 67 68 67 65 63 63 60 61 62 63 66 69 69 70 70 67 62 61 61 64 74 72 68
62 51 44 54 58 61 56 60 60 55 48 43 39 49 67 67 68 68 67 67 65 65 66 64 62 58 59 57 57 58 60 62 65 67 69 69 70 67 63 62 63 69 71 74
60 54 49 47 56 60 54 57 60 53 40 45 50 55 62 66 65 67 67 66 65 64 63 62 58 57 56 56 56 56 56 59 61 64 66 67 68 70 69 66 64 65 71 70
58 49 55 57 59 59 58 58 59 55 54 44 52 54 60 65 65 65 66 65 62 61 61 58 55 56 55 54 54 54 56 55 56 60 63 65 67 70 68 67 68 66 71 70
60 49 54 52 59 59 56 59 60 60 60 59 60 59 69 69 68 65 65 62 59 59 57 55 54 55 52 52 51 52 52 53 55 56 60 65 67 69 70 65 63 68 66 67
56 53 49 45 56 57 49 57 59 61 63 61 54 62 65 63 63 63 61 61 58 55 52 55 53 53 51 51 51 48 49 52 53 54 59 63 66 68 71 72 64 64 66 65
56 54 49 43 49 36 57 63 61 57 60 62 61 62 63 64 64 63 63 60 56 54 56 56 54 53 51 52 49 49 49 50 50 53 56 62 66 68 70 71 67 64 65 66
62 55 42 37 41 51 54 59 57 50 48 61 60 62 62 63 61 60 60 60 58 57 56 58 56 52 50 48 48 47 47 49 50 51 54 58 64 65 67 70 69 65 63 67
62 59 44 44 33 32 52 59 62 59 42 62 61 58 58 58 45 52 61 59 56 59 59 57 53 49 47 47 47 45 46 47 48 50 52 55 58 64 65 68 69 70 65 66
48 48 40 41 36 48 60 63 60 42 49 61 62 61 60 53 53 57 56 57 60 62 60 56 52 45 45 45 45 43 44 44 48 48 49 52 56 61 64 64 68 70 67 67
42 38 38 42 35 33 63 60 47 60 63 63 63 63 61 60 59 56 57 60 62 61 60 56 48 44 45 45 44 42 42 45 46 46 48 50 55 61 65 63 67 69 70 71
42 50 45 46 45 60 64 60 63 65 63 63 63 64 63 59 57 59 61 61 60 60 58 55 46 43 44 44 44 41 43 45 45 46 49 52 57 64 63 61 65 66 69 71
58 61 52 53 57 60 63 64 66 67 66 67 66 64 63 59 61 60 61 60 59 59 55 54 45 41 41 43 43 43 44 45 44 45 50 54 56 61 61 65 66 63 67 69
57 58 54 54 59 62 64 66 67 67 68 66 65 63 62 62 61 61 60 59 59 58 55 54 44 41 42 42 42 43 44 44 44 45 47 49 53 55 58 56 54 60 55 52
59 56 53 48 60 60 62 67 67 65 65 64 63 63 64 63 61 61 60 60 59 57 57 53 46 42 42 42 42 43 43 44 44 44 45 47 50 53 56 58 60 40 41 40
MSLP
1008.31 1008.26 1006.86 1006.20 1007.61 1007.86 1007.64 1007.16 1006.42 1006.03 1005.82 1006.44 1005.97 1005.16 1004.88 1004.86 1005.27 1005.80 1006.68 1007.34 1007.67 1008.11 1008.28 1008.49 1008.54 1008.69 1008.57 1008.62 1008.64 1008.40 1008.04 1007.50 1006.94 1006.22 1005.32 1004.91 1004.92 1005.08 1004.48 1002.98 1003.06 1003.80 1005.22 1006.14
1008.45 1007.24 1007.01 1008.36 1008.54 1008.48 1007.88 1007.28 1006.39 1006.00 1006.16 1006.26 1005.61 1004.46 1004.32 1004.28 1005.24 1006.25 1007.02 1007.40 1007.80 1008.04 1008.19 1008.41 1008.52 1008.52 1008.53 1008.39 1008.30 1008.13 1007.75 1007.04 1006.72 1006.03 1004.92 1004.52 1003.85 1003.64 1003.04 1001.48 1001.52 1001.88 1003.49 1005.04
1007.49 1006.90 1008.26 1008.81 1008.62 1008.37 1007.64 1007.04 1006.78 1006.87 1006.64 1005.81 1004.87 1003.28 1002.98 1004.51 1005.41 1006.01 1006.72 1007.28 1007.75 1008.01 1008.14 1008.18 1008.07 1008.23 1008.28 1008.08 1007.98 1007.62 1007.50 1007.02 1006.46 1005.94 1004.86 1003.90 1002.79 1002.52 1003.09 1001.51 1001.29 1001.95 1001.95 1003.14
1007.61 1007.18 1008.62 1008.78 1008.37 1008.32 1007.72 1007.50 1007.93 1007.36 1006.61 1004.60 1004.49 1003.01 1002.61 1002.87 1004.40 1004.63 1005.69 1006.64 1007.42 1007.90 1008.00 1007.96 1007.69 1007.62 1007.85 1007.74 1007.61 1007.47 1006.99 1006.66 1006.12 1005.34 1004.66 1003.07 1002.19 1001.35 1002.36 998.01 999.80 1001.05 1001.84 1001.91
1007.31 1007.91 1008.20 1008.34 1008.12 1008.96 1008.34 1008.38 1008.06 1007.20 1006.05 1005.10 1003.68 1002.81 1001.14 1002.04 1002.72 1003.32 1004.92 1006.31 1007.24 1007.74 1007.70 1007.66 1007.42 1007.44 1007.50 1007.33 1007.10 1007.18 1006.76 1006.10 1005.72 1005.27 1005.20 1004.07 1002.08 1000.02 1001.19 998.86 996.81 1000.00 1000.48 1001.80
1007.96 1008.41 1009.16 1008.67 1008.86 1009.30 1009.10 1008.63 1006.93 1005.85 1005.46 1004.01 1002.29 1002.06 1000.92 1000.68 1001.78 1003.34 1005.07 1006.32 1007.06 1007.36 1007.62 1007.49 1007.56 1007.36 1006.96 1006.85 1006.58 1006.80 1006.60 1005.66 1005.15 1004.69 1004.42 1003.86 1001.83 999.08 999.98 999.40 997.45 998.71 999.95 1000.84
1007.40 1007.77 1008.65 1009.62 1008.96 1008.37 1009.12 1007.80 1006.74 1005.16 1004.15 1002.99 1002.37 1002.37 1001.24 1001.68 1003.04 1004.65 1005.76 1006.70 1007.40 1007.72 1007.34 1007.75 1007.64 1007.38 1006.85 1006.36 1006.37 1006.33 1006.09 1005.08 1004.57 1003.94 1003.75 1003.34 1001.43 998.71 998.27 998.40 996.23 995.94 999.33 999.91
1006.48 1006.78 1007.94 1008.84 1008.90 1008.30 1008.48 1008.75 1007.71 1006.92 1004.92 1003.35 1003.06 1001.65 1000.41 1002.23 1003.96 1005.55 1006.49 1007.15 1007.40 1007.11 1007.55 1007.60 1007.48 1007.58 1007.07 1006.44 1006.17 1005.81 1005.52 1004.46 1003.99 1003.35 1003.04 1002.88 1001.65 999.90 997.11 996.59 996.87 994.88 996.72 998.25
1007.12 1006.85 1008.05 1009.11 1009.13 1009.38 1008.45 1008.60 1009.13 1008.79 1007.35 1005.24 1003.03 1001.32 1000.77 1002.65 1004.39 1005.19 1005.61 1006.30 1006.61 1007.27 1007.50 1007.55 1007.36 1007.14 1007.28 1006.87 1006.28 1005.58 1004.82 1004.21 1003.42 1002.93 1002.51 1002.44 1001.56 1000.46 998.90 997.06 995.82 996.35 995.90 997.50
1008.38 1008.34 1007.87 1008.56 1009.61 1009.48 1009.45 1009.57 1009.79 1009.97 1008.01 1005.18 1002.71 1001.63 1001.18 1002.63 1003.49 1004.57 1005.58 1006.32 1006.78 1007.27 1007.20 1007.36 1007.38 1007.24 1006.99 1006.70 1006.45 1005.42 1004.80 1003.96 1003.19 1002.76 1001.92 1001.96 1001.42 1000.69 999.68 997.30 995.52 997.10 997.48 997.70
1009.05 1009.68 1008.34 1008.94 1008.87 1007.80 1009.27 1009.52 1010.00 1010.30 1009.36 1007.30 1004.95 1002.69 1002.80 1003.20 1004.21 1005.10 1005.38 1006.10 1006.43 1007.01 1006.70 1007.13 1007.36 1007.38 1007.19 1007.13 1006.93 1005.71 1004.95 1003.96 1002.95 1002.36 1001.49 1001.01 1000.86 1000.39 1000.02 999.36 997.66 997.48 998.30 998.74
1009.44 1009.92 1008.76 1007.63 1007.23 1008.16 1008.43 1008.35 1009.19 1010.12 1009.20 1008.49 1007.37 1004.45 1003.71 1004.04 1004.59 1005.02 1005.32 1005.42 1006.28 1006.78 1006.64 1007.07 1007.63 1007.81 1007.52 1007.79 1007.37 1006.49 1005.53 1004.35 1003.06 1002.24 1001.39 1000.58 1000.20 1000.16 999.74 998.71 998.10 997.15 997.36 998.77
1009.53 1009.88 1009.13 1007.07 1007.89 1008.37 1008.31 1008.30 1008.75 1009.26 1010.31 1009.12 1007.65 1004.56 1004.07 1004.18 1003.72 1004.06 1004.33 1005.17 1006.37 1006.62 1006.76 1007.46 1007.86 1008.34 1007.81 1007.94 1007.55 1006.85 1006.16 1004.99 1003.64 1002.51 1001.51 1000.36 999.63 999.48 999.48 998.87 998.51 997.70 997.19 997.39
1010.07 1009.72 1009.08 1007.62 1006.29 1007.02 1007.11 1007.30 1007.60 1008.52 1008.98 1008.22 1006.12 1004.39 1003.65 1003.26 1003.36 1003.85 1004.55 1005.42 1006.30 1006.79 1007.02 1007.45 1008.21 1008.36 1008.23 1008.03 1007.46 1006.86 1006.22 1005.44 1004.35 1002.93 1001.61 1000.58 999.80 999.16 998.87 998.94 998.54 997.96 997.58 998.00
1010.14 1009.35 1008.88 1008.14 1007.53 1007.06 1006.56 1006.36 1006.40 1006.29 1006.58 1006.48 1005.46 1004.46 1003.84 1003.21 1003.34 1004.32 1004.76 1005.48 1006.38 1006.98 1007.34 1008.20 1008.36 1008.14 1008.24 1008.03 1007.66 1007.06 1006.30 1005.58 1004.63 1003.19 1001.67 1000.61 999.88 998.96 998.03 998.02 997.96 997.76 997.47 997.41
1009.51 1009.02 1008.76 1007.85 1007.24 1006.55 1005.58 1005.25 1005.08 1004.85 1004.81 1004.38 1003.91 1002.88 1002.88 1002.90 1003.83 1004.47 1005.01 1005.86 1006.86 1007.39 1008.00 1008.64 1008.51 1008.07 1008.30 1008.09 1007.59 1007.08 1006.44 1005.58 1004.62 1003.42 1001.86 1000.54 999.83 998.98 998.11 997.49 997.34 997.43 996.73 997.25
1008.60 1008.71 1008.70 1007.68 1007.14 1005.93 1004.51 1003.88 1003.66 1003.32 1003.58 1003.60 1003.31 1003.07 1003.68 1004.00 1004.26 1004.76 1005.65 1006.48 1007.18 1008.04 1008.66 1008.48 1008.36 1008.19 1008.32 1007.96 1007.62 1007.16 1006.52 1005.60 1004.50 1003.37 1002.02 1000.44 999.41 998.63 997.92 997.00 996.93 996.98 996.71 997.00
1007.40 1008.10 1008.73 1008.46 1008.03 1005.96 1003.91 1004.16 1004.11 1004.06 1003.90 1003.90 1003.92 1004.11 1004.28 1004.52 1004.96 1005.86 1006.50 1006.92 1007.80 1008.24 1008.15 1008.20 1008.25 1008.36 1008.33 1007.92 1007.65 1007.05 1006.38 1005.41 1004.34 1003.04 1001.93 1000.58 999.26 998.21 997.57 996.72 996.32 996.74 996.62 996.09
1006.88 1007.65 1008.76 1008.98 1007.81 1005.80 1004.42 1003.82 1003.68 1004.72 1004.69 1004.47 1004.36 1004.56 1004.95 1005.35 1005.99 1005.98 1006.98 1007.40 1007.88 1008.09 1008.00 1007.90 1008.36 1008.53 1008.34 1008.03 1007.58 1006.79 1005.86 1004.92 1003.84 1002.68 1001.64 1000.64 999.35 998.46 997.58 996.57 995.99 996.41 996.69 995.92
1005.95 1007.30 1008.41 1008.60 1008.06 1006.28 1004.52 1004.78 1005.22 1005.58 1004.83 1004.15 1004.81 1005.26 1005.45 1006.05 1006.56 1006.62 1006.87 1007.66 1007.87 1007.57 1007.28 1007.70 1008.57 1008.73 1008.55 1008.00 1007.42 1006.45 1005.36 1004.49 1003.48 1002.45 1001.49 1000.72 999.71 998.24 997.79 996.74 996.28 995.83 996.18 995.88
1005.45 1006.46 1007.45 1008.18 1007.86 1005.53 1004.53 1004.40 1005.76 1005.30 1004.57 1004.66 1005.00 1005.23 1005.42 1005.96 1006.70 1007.14 1007.70 1007.84 1007.44 1006.76 1007.07 1007.82 1008.48 1008.73 1008.50 1007.98 1007.31 1006.33 1005.30 1004.09 1003.06 1002.19 1001.16 1000.36 999.58 998.31 997.78 997.19 996.43 996.22 995.82 995.82
1005.30 1006.42 1007.04 1007.44 1006.96 1005.77 1004.08 1004.64 1005.19 1003.83 1004.20 1004.52 1004.82 1004.88 1005.22 1005.88 1006.59 1007.29 1007.39 1006.79 1006.45 1006.56 1006.80 1007.57 1008.51 1008.59 1008.33 1007.81 1007.04 1006.06 1004.95 1003.91 1002.75 1001.57 1000.46 999.52 998.78 997.83 997.14 996.96 996.44 996.48 996.20 995.43
1004.40 1004.34 1004.86 1005.46 1004.64 1004.05 1003.54 1003.85 1004.14 1003.94 1004.21 1004.44 1004.76 1004.98 1005.27 1006.00 1006.73 1006.60 1006.36 1006.36 1006.38 1006.65 1007.02 1007.72 1008.63 1008.47 1008.15 1007.62 1006.93 1005.91 1004.74 1003.47 1002.18 1000.82 999.23 998.36 997.72 997.22 997.10 996.80 996.15 996.18 996.23 995.90
1002.68 1003.08 1003.58 1003.68 1003.44 1003.28 1003.08 1003.66 1003.76 1003.66 1003.88 1004.16 1004.54 1004.91 1005.51 1005.96 1006.02 1006.17 1006.17 1006.38 1006.50 1006.68 1007.37 1007.82 1008.63 1008.38 1008.00 1007.49 1006.77 1005.90 1004.74 1003.44 1001.89 1000.76 999.09 997.87 997.11 996.37 996.27 996.10 995.80 995.73 995.58 996.36
1002.78 1002.80 1002.69 1002.60 1002.60 1002.74 1002.57 1002.64 1002.82 1003.18 1003.56 1003.97 1004.66 1005.12 1005.48 1005.76 1005.82 1006.05 1006.22 1006.43 1006.57 1006.79 1007.42 1007.84 1008.64 1008.49 1008.10 1007.56 1006.76 1005.79 1004.73 1003.40 1002.44 1001.06 1000.03 999.05 998.02 997.52 997.57 998.35 997.96 997.77 999.02 999.13
1002.44 1002.00 1001.73 1001.82 1002.09 1002.30 1002.14 1002.10 1002.69 1002.83 1003.52 1004.17 1004.63 1004.92 1005.28 1005.63 1005.86 1006.18 1006.36 1006.58 1006.66 1006.98 1007.17 1007.78 1008.56 1008.56 1008.20 1007.64 1006.87 1006.00 1005.02 1003.80 1002.87 1001.72 1000.80 1000.03 999.25 998.51 998.29 997.94 998.24 997.90 998.82 998.91
Wind_Speed
3 9 14 3 4 9 11 13 14 13 8 9 15 19 19 13 9 4 4 6 8 11 13 13 14 14 14 14 16 17 18 16 13 13 13 10 15 12 14 15 20 19 18 18
11 14 7 1 7 10 11 13 15 10 4 13 19 18 19 11 7 4 4 5 8 10 12 14 15 15 16 15 15 16 17 16 14 15 12 14 11 12 17 17 19 19 21 18
11 7 7 5 10 11 13 12 11 13 16 22 19 23 12 8 7 10 8 4 8 11 14 16 17 16 16 16 16 15 17 18 16 18 14 14 14 13 16 17 14 15 22 21
11 8 6 10 12 7 12 4 10 15 13 10 7 8 13 19 15 14 9 6 8 11 14 17 18 17 17 17 15 18 16 16 17 18 19 16 19 17 13 18 13 16 21 20
5 7 11 12 10 2 11 11 16 16 16 14 18 10 14 12 15 15 3 5 8 11 15 20 20 18 17 17 14 17 18 16 17 17 16 15 24 17 12 15 16 15 18 18
15 3 8 12 3 10 11 17 19 16 10 9 14 10 9 5 3 4 2 6 9 14 19 21 20 19 16 16 14 14 18 19 16 16 17 18 28 22 13 13 17 13 13 14
15 13 9 6 12 12 12 13 5 6 10 10 6 8 15 7 7 2 4 8 13 18 18 18 19 21 19 16 17 15 18 18 17 16 15 17 21 23 20 16 16 16 12 14
9 13 15 11 10 8 7 6 5 6 7 12 19 10 4 7 8 2 3 8 13 17 19 20 20 19 20 19 18 17 18 19 18 14 13 12 17 15 16 15 11 12 13 12
5 7 10 5 6 6 7 6 10 7 15 12 11 14 15 13 6 10 10 12 17 20 19 21 21 17 16 18 21 19 18 20 17 16 11 10 12 14 17 18 16 10 13 14
3 6 11 8 6 11 11 7 4 4 7 8 10 17 8 6 5 10 12 17 17 19 19 19 18 19 18 16 19 20 19 20 19 18 13 8 9 11 14 15 13 17 9 15
3 5 9 8 12 10 9 10 7 4 8 6 9 5 4 8 7 11 14 17 15 20 18 18 20 19 19 18 20 21 18 19 18 16 17 13 9 9 10 11 12 13 10 14
8 7 8 13 5 3 11 13 13 6 6 7 9 14 11 2 4 13 14 17 18 19 19 17 18 20 18 16 19 20 21 20 18 17 17 17 10 7 8 10 14 14 12 7
9 7 5 8 7 8 10 12 13 7 8 15 12 9 6 10 15 14 18 15 17 19 19 18 18 19 17 17 18 17 17 20 20 19 18 18 16 10 9 8 11 11 12 11
2 8 10 8 5 10 8 13 17 16 12 16 21 25 23 23 21 19 20 17 17 19 18 17 18 17 18 18 18 17 17 18 20 20 18 17 17 16 10 9 9 12 14 19
13 10 14 18 19 19 19 20 20 22 23 22 23 27 25 24 18 16 16 17 18 19 18 19 19 18 19 18 17 17 17 17 18 19 20 17 16 15 11 9 11 10 14 12
15 10 10 17 17 19 23 22 23 25 24 26 26 25 19 12 9 15 17 17 18 18 18 19 20 18 18 19 17 18 17 17 18 18 20 18 16 15 15 5 8 12 9 12
18 13 10 14 14 15 15 17 19 22 20 18 19 18 15 17 16 15 16 16 15 16 17 19 17 17 16 19 18 17 17 18 18 18 19 19 16 15 13 12 5 9 8 16
16 18 9 10 12 13 4 1 5 9 11 12 14 15 15 14 14 14 15 10 13 16 18 18 15 18 19 19 18 16 16 16 16 18 18 19 16 15 13 12 6 7 6 6
18 14 4 6 10 17 17 8 13 3 8 12 12 10 10 12 12 12 1 7 15 18 15 14 15 17 17 16 16 16 16 17 15 15 17 17 17 14 14 11 7 4 5 6
21 17 10 9 6 7 1 4 5 2 9 6 2 7 11 8 10 10 14 14 15 17 12 12 15 16 15 15 16 16 17 17 16 16 16 16 18 14 11 11 7 6 4 5
12 14 16 14 10 11 11 3 6 5 3 3 7 11 11 9 7 12 12 14 16 14 15 11 16 13 14 14 15 15 16 16 15 15 14 16 15 14 13 10 7 7 7 5
12 9 7 12 9 16 12 13 8 2 3 5 9 11 10 9 8 9 13 13 14 15 14 13 14 13 14 14 14 15 16 17 16 15 14 15 13 11 8 10 5 7 4 5
10 11 10 11 8 8 6 9 14 5 6 8 10 10 8 7 8 13 11 12 12 14 12 12 13 14 14 14 14 15 16 17 16 16 14 12 12 10 9 8 5 4 1 4
16 14 12 10 11 15 9 13 13 10 11 10 8 7 6 7 9 10 10 11 11 11 10 11 14 14 15 14 15 14 16 16 15 15 12 7 5 5 5 4 2 4 7 6
12 9 14 16 14 11 11 10 13 14 10 7 6 5 6 7 8 9 10 10 10 10 8 10 11 12 15 15 15 15 16 15 13 12 10 9 5 5 5 4 5 4 7 4
13 13 12 8 8 9 12 6 4 5 7 6 6 5 5 5 7 8 9 9 8 10 7 9 11 12 14 14 15 15 16 15 14 11 10 8 7 6 5 4 2 11 6 6
Wind_Direction
230 273 234 108 23 306 290 275 273 271 293 301 270 284 281 278 271 232 296 330 336 338 337 339 335 322 312 308 310 309 305 301 293 288 283 251 238 227 241 217 199 184 187 196
234 237 84 19 285 276 265 267 269 302 226 291 288 277 276 251 211 230 268 303 322 326 330 330 332 331 314 303 301 303 301 299 306 296 280 281 230 223 222 211 199 182 178 193
270 19 95 253 273 249 254 274 297 308 305 276 266 271 212 178 215 201 237 288 319 328 329 327 326 323 319 306 302 301 308 308 306 296 282 270 248 232 235 218 198 186 178 185
267 141 221 270 263 257 277 54 295 291 295 296 312 299 201 194 199 225 211 273 329 327 321 326 321 321 319 306 309 300 300 304 298 315 309 290 260 236 225 212 195 185 186 181
66 213 251 259 262 125 278 326 290 281 276 280 266 235 271 158 221 226 182 330 309 316 327 327 321 319 315 303 304 303 303 304 302 311 313 301 291 245 206 225 193 192 182 179
270 63 270 259 306 249 292 277 270 256 254 259 252 241 280 293 219 48 298 296 313 319 324 326 324 319 310 312 311 313 300 298 302 309 316 307 310 245 216 213 205 194 187 186
197 220 206 245 255 214 232 280 307 258 193 234 115 254 255 264 170 266 315 311 325 312 328 325 321 320 318 312 320 312 306 297 307 316 319 314 305 268 224 222 206 167 188 191
247 184 193 183 250 320 296 307 279 270 272 308 327 271 261 66 99 152 254 280 299 325 329 323 322 322 316 324 315 316 311 308 313 316 321 317 313 321 250 221 233 188 186 191
265 220 138 206 234 247 126 259 28 308 264 249 237 252 194 132 180 224 251 314 323 339 323 327 326 318 327 320 317 314 312 309 310 313 317 308 315 314 315 243 237 218 191 197
142 266 188 156 232 230 258 27 224 211 275 294 295 303 306 166 251 0 324 329 327 325 326 330 325 330 322 326 320 316 316 311 311 309 313 294 307 302 310 289 242 236 230 210
189 208 146 173 211 234 176 223 228 274 272 280 304 279 74 325 356 310 325 315 331 326 324 330 334 332 325 338 322 317 316 310 310 310 313 315 294 304 303 293 260 231 214 245
204 194 252 232 142 271 275 271 183 220 243 251 291 277 290 345 260 308 312 324 340 320 327 337 327 333 336 327 324 321 322 315 310 312 310 309 301 303 306 318 324 226 207 197
152 219 251 208 189 209 238 227 240 227 265 258 276 266 142 223 263 295 325 343 330 322 332 329 339 324 336 322 320 317 317 315 314 313 307 306 310 307 317 314 298 289 229 218
157 234 233 250 307 333 247 224 231 208 232 255 255 275 284 300 311 326 320 331 321 321 327 338 331 326 324 322 318 319 317 316 313 308 301 299 303 305 304 299 295 287 233 234
219 247 249 257 262 269 267 261 257 250 229 234 267 279 286 285 305 309 317 315 323 321 328 330 326 321 327 326 320 317 319 314 311 307 302 297 292 297 303 298 301 290 220 209
202 254 257 270 272 269 270 266 262 256 255 261 267 273 292 346 310 309 315 330 316 320 331 325 320 328 329 323 318 318 314 312 310 305 298 295 293 293 292 255 290 292 227 205
221 229 249 271 273 279 274 265 269 258 252 260 270 292 322 304 305 322 329 317 322 329 321 317 324 332 326 320 319 313 313 310 308 301 296 293 287 283 282 288 237 289 296 203
212 226 222 270 300 259 227 213 307 304 279 279 274 283 295 305 325 333 306 337 325 320 320 320 327 332 323 319 314 311 310 305 301 297 295 291 289 283 288 285 275 274 307 270
218 238 202 229 248 282 301 294 216 260 281 280 274 287 314 313 328 295 91 335 338 321 314 327 332 329 323 317 313 308 306 306 303 297 294 289 283 270 275 282 304 313 322 295
214 212 216 229 240 244 275 118 63 315 270 143 149 298 301 320 292 298 335 334 318 304 317 344 339 328 318 317 314 311 310 313 305 307 300 295 291 276 266 268 285 299 245 289
203 198 211 223 237 260 245 202 138 239 60 144 314 314 304 297 280 302 323 312 297 319 330 358 338 325 316 315 315 313 312 307 314 301 288 279 272 264 255 267 278 300 327 316
174 183 206 229 229 247 230 161 207 247 218 304 308 311 305 308 303 311 287 294 320 331 331 348 337 322 319 317 319 319 314 316 311 298 280 270 260 254 249 227 232 239 270 270
193 204 192 197 209 238 227 180 218 253 283 303 306 314 310 304 303 284 320 320 330 327 345 347 337 322 323 323 327 321 320 318 322 313 294 248 253 222 232 248 220 210 215 284
222 188 225 221 232 248 202 219 252 249 268 287 299 292 288 287 288 313 316 330 325 326 348 339 337 328 324 328 328 324 325 324 328 320 329 346 355 237 249 225 322 19 345 331
236 200 227 242 234 269 270 251 241 245 265 264 270 275 293 292 307 321 325 325 331 321 348 337 340 330 326 328 330 332 334 331 337 331 344 355 11 23 58 73 2 71 83 310
245 229 232 237 224 246 247 280 285 255 243 232 246 246 245 288 316 331 324 330 335 330 333 340 342 333 329 330 333 339 339 339 344 344 351 360 359 7 24 20 335 47 22 80